Grand Junction, CO

6:51 AM MST on December 11, 2017 (GMT -0700)
Walker

Weather History for KGJT - April, 2013

Change the Weather History Date:

Monday, April 22, 2013

  Actual Average Record
Temperature  
Mean Temperature 55 °F 54 °F  
Max Temperature 68 °F 67 °F 85 °F (1969)
Min Temperature 41 °F 40 °F 26 °F (1978)
Degree Days  
Heating Degree Days 10 12  
Month to date heating degree days 401 321  
Since 1 July heating degree days 5813 5353  
Cooling Degree Days 0 0  
Month to date cooling degree days 0 0  
Year to date cooling degree days 0 0  
Growing Degree Days 4 (Base 50)    
Moisture  
Dew Point 26 °F    
Average Humidity 39    
Maximum Humidity 62    
Minimum Humidity 16    
Precipitation  
Precipitation 0.00 in 0.03 in 0.55 in (2004)
Month to date precipitation 1.15 0.69  
Year to date precipitation 2.50 2.73  
Snow  
Snow 0.00 in 0.00 in 0.60 in (1970)
Month to date snowfall 4.6 0.8  
Since 1 July snowfall 24.6 18.9  
Snow Depth 0.00 in    
Sea Level Pressure  
Sea Level Pressure 29.81 in    
Wind  
Wind Speed 10 mph (NNW)    
Max Wind Speed 29 mph    
Max Gust Speed 39 mph    
Visibility 10 miles    
Events      
T = Trace of Precipitation, MM = Missing Value Source: NWS Daily Summary

Daily Weather History Graph

Daily Weather History Graph

Search for Another Location

Airport or City:

Trip Planner

Search our weather history database for the weather conditions in past years. The results will help you decide how hot, cold, wet, or windy it might be!

Date:

Astronomy

Apr. 22, 2013 Rise Set
Actual Time 6:27 AM MDT 7:58 PM MDT
Civil Twilight 5:58 AM MDT 8:26 PM MDT
Nautical Twilight 5:25 AM MDT 9:00 PM MDT
Astronomical Twilight 4:49 AM MDT 9:36 PM MDT
Moon 4:52 PM MDT (4/22) 4:21 AM MDT (4/22)
Length of Visible Light 14h 27m
Length of Day
13h 31m
Waxing Gibbous, 88% of the Moon is Illuminated
Apr 22
Waxing Gibbous
Apr 25
Full
May 2
Last Quarter
May 9
New
May 17
First Quarter

Hourly Weather History & Observations

Time (MDT) Temp. Dew Point Humidity Pressure Visibility Wind Dir Wind Speed Gust Speed Precip Events Conditions
12:53 AM 51.1 °F 28.9 °F 43% 29.86 in 10.0 mi ESE 4.6 mph - N/A   Overcast
1:53 AM 52.0 °F 27.0 °F 38% 29.83 in 10.0 mi ESE 9.2 mph - N/A   Clear
2:53 AM 51.1 °F 28.9 °F 43% 29.83 in 10.0 mi SE 8.1 mph - N/A   Overcast
3:53 AM 50.0 °F 30.0 °F 46% 29.82 in 10.0 mi East 6.9 mph - N/A   Overcast
4:53 AM 46.9 °F 32.0 °F 56% 29.82 in 10.0 mi Calm Calm - N/A   Overcast
5:53 AM 45.0 °F 32.0 °F 60% 29.82 in 10.0 mi Calm Calm - N/A   Mostly Cloudy
6:53 AM 42.1 °F 30.9 °F 65% 29.85 in 10.0 mi Calm Calm - N/A   Scattered Clouds
7:53 AM 46.9 °F 33.1 °F 59% 29.86 in 10.0 mi Calm Calm - N/A   Partly Cloudy
8:53 AM 52.0 °F 30.9 °F 45% 29.87 in 10.0 mi SE 3.5 mph - N/A   Clear
9:53 AM 57.0 °F 28.0 °F 33% 29.86 in 10.0 mi WNW 3.5 mph - N/A   Clear
10:53 AM 60.1 °F 23.0 °F 24% 29.84 in 10.0 mi NW 13.8 mph 21.9 mph N/A   Scattered Clouds
11:53 AM 62.1 °F 23.0 °F 22% 29.82 in 10.0 mi NW 12.7 mph 23.0 mph N/A   Scattered Clouds
12:53 PM 63.0 °F 21.0 °F 20% 29.78 in 10.0 mi WNW 9.2 mph 19.6 mph N/A   Scattered Clouds
1:53 PM 66.0 °F 21.0 °F 18% 29.74 in 10.0 mi WNW 20.7 mph 31.1 mph N/A   Mostly Cloudy
2:53 PM 64.0 °F 21.0 °F 19% 29.73 in 10.0 mi NNW 13.8 mph 20.7 mph N/A   Mostly Cloudy
3:53 PM 66.9 °F 19.0 °F 16% 29.69 in 10.0 mi WNW 16.1 mph 21.9 mph N/A   Mostly Cloudy
4:53 PM 66.0 °F 21.0 °F 18% 29.68 in 10.0 mi NW 19.6 mph 29.9 mph N/A   Mostly Cloudy
5:53 PM 64.0 °F 25.0 °F 23% 29.70 in 10.0 mi NW 25.3 mph 32.2 mph N/A   Scattered Clouds
6:53 PM 59.0 °F 24.1 °F 26% 29.76 in 10.0 mi NW 16.1 mph 24.2 mph N/A   Mostly Cloudy
7:53 PM 55.9 °F 24.1 °F 29% 29.77 in 10.0 mi NW 13.8 mph - N/A   Mostly Cloudy
8:53 PM 54.0 °F 23.0 °F 30% 29.79 in 10.0 mi NNE 11.5 mph - N/A   Overcast
9:31 PM 53.6 °F 23.0 °F 30% 29.92 in 10.0 mi North 12.7 mph 21.9 mph N/A   Overcast
9:53 PM 53.1 °F 26.1 °F 35% 29.83 in 10.0 mi North 13.8 mph 20.7 mph N/A   Overcast
10:53 PM 48.0 °F 27.0 °F 44% 29.88 in 10.0 mi NNW 12.7 mph 21.9 mph N/A   Overcast
11:53 PM 46.9 °F 25.0 °F 42% 29.88 in 10.0 mi North 9.2 mph - N/A   Overcast